Fremont, MI

7:07 AM EST on November 14, 2019 (GMT -0500)
Fremont

Weather History for KFFX - September, 2019

Change the Weather History Date:

Friday, September 13, 2019

  Actual Average (KMKG) Record (KMKG)
Temperature  
Mean Temperature 70 °F -  
Max Temperature 77 °F 72 °F 92 °F (1952)
Min Temperature 62 °F 53 °F 36 °F (1946)
Cooling Degree Days 4    
Growing Degree Days 20 (Base 50)    
Moisture  
Dew Point 59 °F    
Average Humidity 76    
Maximum Humidity 96    
Minimum Humidity 45    
Precipitation  
Precipitation 0.00 in - - ()
Sea Level Pressure  
Sea Level Pressure 30.00 in    
Wind  
Wind Speed 11 mph ()    
Max Wind Speed 24 mph    
Max Gust Speed 31 mph    
Visibility 8.2 miles    
Events Rain    
Averages and records for this station are not official NWS values.
T = Trace of Precipitation, MM = Missing Value Source: Averaged Metar Reports

Daily Weather History Graph

Daily Weather History Graph

Search for Another Location

Airport or City:

Astronomy

Sep. 13, 2019 Rise Set
Actual Time 7:20 AM EDT 7:58 PM EDT
Civil Twilight 6:52 AM EDT 8:26 PM EDT
Nautical Twilight 6:18 AM EDT 9:00 PM EDT
Astronomical Twilight 5:42 AM EDT 9:36 PM EDT
Moon 8:13 PM EDT (9/13) 6:34 AM EDT (9/13)
Length of Visible Light 13h 34m
Length of Day
12h 37m
Full, 100% of the Moon is Illuminated
Sep 13
Full
Sep 14
Full
Sep 21
Last Quarter
Sep 28
New
Oct 5
First Quarter

Hourly Weather History & Observations

Time (EDT) Temp. Dew Point Humidity Pressure Visibility Wind Dir Wind Speed Gust Speed Precip Events Conditions
12:16 AM 62.6 °F 60.8 °F 94% 30.11 in 10.0 mi ESE 13.8 mph 19.6 mph N/A   Overcast
12:35 AM 63.0 °F 61.0 °F 93% 30.10 in 10.0 mi ESE 15.0 mph 20.7 mph N/A   Overcast
12:55 AM 63.1 °F 61.5 °F 94% 30.09 in 7.0 mi ESE 12.7 mph 18.4 mph N/A   Overcast
12:56 AM 63.1 °F 61.5 °F 94% 30.09 in 7.0 mi ESE 15.0 mph 18.4 mph N/A   Overcast
1:19 AM 63.5 °F 61.9 °F 94% 30.09 in 7.0 mi ESE 10.4 mph 19.6 mph N/A   Overcast
1:37 AM 63.9 °F 62.6 °F 96% 30.08 in 5.0 mi ESE 9.2 mph 18.4 mph N/A   Overcast
2:15 AM 64.6 °F 63.1 °F 95% 30.05 in 5.0 mi SE 12.7 mph 19.6 mph N/A   Overcast
2:16 AM 64.6 °F 63.1 °F 95% 30.05 in 5.0 mi SE 11.5 mph 19.6 mph N/A   Overcast
2:35 AM 65.3 °F 63.7 °F 94% 30.05 in 7.0 mi ESE 11.5 mph 17.3 mph N/A   Overcast
2:40 AM 65.3 °F 63.7 °F 94% 30.05 in 7.0 mi SE 9.2 mph 19.6 mph N/A   Overcast
2:58 AM 65.7 °F 63.9 °F 94% 30.05 in 10.0 mi ESE 12.7 mph 16.1 mph N/A   Overcast
3:16 AM 65.5 °F 63.9 °F 94% 30.03 in 5.0 mi ESE 9.2 mph 17.3 mph N/A Rain Light Rain
3:35 AM 65.7 °F 64.4 °F 96% 30.02 in 10.0 mi SE 9.2 mph 17.3 mph N/A   Overcast
3:55 AM 65.7 °F 64.4 °F 96% 30.02 in 7.0 mi SE 9.2 mph 18.4 mph N/A Rain Light Rain
3:56 AM 65.7 °F 64.4 °F 96% 30.01 in 10.0 mi SE 10.4 mph 18.4 mph N/A Rain Rain
4:19 AM 65.7 °F 64.4 °F 96% 30.01 in 10.0 mi SE 9.2 mph 17.3 mph N/A Rain Light Rain
4:37 AM 65.8 °F 64.4 °F 95% 30.00 in 7.0 mi SE 9.2 mph 17.3 mph N/A Rain Rain
4:55 AM 66.2 °F 64.9 °F 96% 30.06 in 1.2 mi West 6.9 mph 19.6 mph N/A Rain Heavy Rain
5:15 AM 66.2 °F 64.8 °F 95% 30.03 in 4.0 mi ENE 5.8 mph - N/A Rain Heavy Rain
5:16 AM 66.2 °F 64.8 °F 95% 30.03 in 4.0 mi East 5.8 mph - N/A Rain Heavy Rain
5:35 AM 65.8 °F 64.4 °F 95% 30.03 in 5.0 mi ESE 4.6 mph - N/A Rain Rain
5:40 AM 65.8 °F 64.4 °F 95% 30.03 in 5.0 mi SE 4.6 mph - N/A Rain Rain
5:58 AM 66.0 °F 64.6 °F 95% 30.03 in 7.0 mi SE 8.1 mph - N/A Rain Rain
6:16 AM 65.8 °F 64.4 °F 95% 30.03 in 5.0 mi SE 6.9 mph - N/A Rain Heavy Rain
6:35 AM 66.0 °F 64.6 °F 95% 30.00 in 7.0 mi ESE 8.1 mph - N/A Rain Heavy Rain
6:36 AM 66.0 °F 64.6 °F 95% 30.00 in 7.0 mi ESE 6.9 mph - N/A Rain Heavy Rain
6:55 AM 66.0 °F 64.8 °F 96% 30.02 in 2.5 mi SE 8.1 mph - N/A Rain Heavy Rain
7:19 AM 66.2 °F 64.9 °F 96% 30.01 in 7.0 mi SE 6.9 mph - N/A Rain Rain
7:37 AM 66.4 °F 65.3 °F 96% 30.01 in 10.0 mi SE 9.2 mph - N/A Rain Rain
7:56 AM 66.4 °F 65.3 °F 96% 30.00 in 10.0 mi SE 6.9 mph - N/A Rain Rain
8:15 AM 66.7 °F 65.5 °F 96% 30.00 in 10.0 mi SSE 8.1 mph - N/A Rain Light Rain
8:35 AM 66.9 °F 65.7 °F 96% 29.98 in 10.0 mi SSE 6.9 mph 16.1 mph N/A Rain Rain
8:58 AM 67.1 °F 65.8 °F 96% 29.97 in 10.0 mi SE 10.4 mph 19.6 mph N/A   Drizzle
9:16 AM 67.3 °F 65.8 °F 95% 29.97 in 10.0 mi SSE 9.2 mph - N/A   Overcast
9:35 AM 67.6 °F 66.2 °F 95% 29.98 in 10.0 mi SSE 8.1 mph 16.1 mph N/A   Overcast
9:36 AM 67.6 °F 66.2 °F 95% 29.98 in 10.0 mi SSE 10.4 mph 16.1 mph N/A   Overcast
9:55 AM 67.6 °F 66.2 °F 95% 29.96 in 10.0 mi SE 9.2 mph 19.6 mph N/A   Overcast
9:56 AM 67.6 °F 66.2 °F 95% 29.96 in 10.0 mi SSE 6.9 mph 19.6 mph N/A   Overcast
10:19 AM 68.0 °F 66.4 °F 95% 29.96 in 10.0 mi SSE 12.7 mph 19.6 mph N/A   Overcast
10:37 AM 68.5 °F 66.7 °F 94% 29.96 in 10.0 mi South 9.2 mph 17.3 mph N/A   Overcast
10:55 AM 68.9 °F 67.1 °F 94% 29.95 in 10.0 mi South 6.9 mph - N/A   Overcast
11:15 AM 69.3 °F 67.3 °F 93% 29.96 in 10.0 mi South 6.9 mph - N/A   Overcast
11:16 AM 69.3 °F 67.3 °F 93% 29.96 in 10.0 mi South 8.1 mph - N/A   Overcast
11:35 AM 69.8 °F 67.8 °F 93% 29.96 in 10.0 mi SSW 10.4 mph 16.1 mph N/A   Overcast
11:58 AM 70.5 °F 68.7 °F 94% 29.96 in 10.0 mi SSW 11.5 mph - N/A Rain Light Rain
12:16 PM 71.4 °F 69.1 °F 92% 29.95 in 7.0 mi SW 12.7 mph 20.7 mph N/A Rain Light Rain
12:35 PM 72.9 °F 68.5 °F 86% 29.95 in 7.0 mi SW 16.1 mph 23.0 mph N/A   Overcast
12:55 PM 73.0 °F 68.2 °F 85% 29.95 in 7.0 mi SW 15.0 mph 23.0 mph N/A   Overcast
12:56 PM 73.0 °F 68.2 °F 85% 29.95 in 7.0 mi SW 15.0 mph 19.6 mph N/A   Overcast
1:19 PM 74.5 °F 66.0 °F 75% 29.95 in 5.0 mi SW 11.5 mph 21.9 mph N/A   Haze
1:37 PM 75.4 °F 61.3 °F 62% 29.95 in 7.0 mi SW 16.1 mph 23.0 mph N/A   Overcast
1:55 PM 75.7 °F 59.9 °F 58% 29.95 in 7.0 mi WSW 15.0 mph 24.2 mph N/A   Mostly Cloudy
2:15 PM 76.3 °F 58.5 °F 54% 29.95 in 7.0 mi SW 15.0 mph 25.3 mph N/A   Scattered Clouds
2:16 PM 76.3 °F 58.6 °F 54% 29.95 in 10.0 mi SW 16.1 mph 25.3 mph N/A   Scattered Clouds
2:35 PM 77.2 °F 58.5 °F 52% 29.95 in 7.0 mi SW 19.6 mph 25.3 mph N/A   Clear
2:58 PM 77.4 °F 58.6 °F 52% 29.95 in 7.0 mi WSW 18.4 mph 26.5 mph N/A   Scattered Clouds
3:16 PM 75.7 °F 59.0 °F 56% 29.95 in 7.0 mi SW 18.4 mph 27.6 mph N/A   Mostly Cloudy
3:35 PM 75.6 °F 57.0 °F 52% 29.94 in 7.0 mi WSW 21.9 mph 31.1 mph N/A   Mostly Cloudy
3:55 PM 76.5 °F 54.3 °F 46% 29.94 in 7.0 mi SW 24.2 mph 31.1 mph N/A   Scattered Clouds
4:19 PM 75.9 °F 55.6 °F 49% 29.95 in 5.0 mi SW 15.0 mph 24.2 mph N/A   Haze
4:37 PM 74.8 °F 54.1 °F 48% 29.95 in 7.0 mi WSW 13.8 mph 23.0 mph N/A   Mostly Cloudy
4:55 PM 75.2 °F 52.7 °F 45% 29.95 in 7.0 mi WSW 15.0 mph 27.6 mph N/A   Mostly Cloudy
4:56 PM 75.2 °F 52.7 °F 45% 29.95 in 7.0 mi WSW 17.3 mph 27.6 mph N/A   Mostly Cloudy
5:15 PM 73.0 °F 52.2 °F 48% 29.95 in 7.0 mi WSW 16.1 mph 25.3 mph N/A   Overcast
5:16 PM 73.0 °F 52.3 °F 48% 29.95 in 7.0 mi WSW 15.0 mph 25.3 mph N/A   Overcast
5:35 PM 72.3 °F 52.2 °F 49% 29.96 in 10.0 mi West 11.5 mph 26.5 mph N/A   Overcast
5:58 PM 70.9 °F 53.1 °F 53% 29.96 in 7.0 mi West 15.0 mph 24.2 mph N/A   Overcast
6:16 PM 70.2 °F 52.2 °F 53% 29.97 in 10.0 mi West 11.5 mph 20.7 mph N/A   Overcast
6:35 PM 69.3 °F 51.8 °F 54% 29.98 in 10.0 mi West 12.7 mph 21.9 mph N/A   Overcast
6:36 PM 69.3 °F 51.8 °F 54% 29.98 in 10.0 mi West 12.7 mph 20.7 mph N/A   Overcast
6:55 PM 68.4 °F 52.3 °F 57% 29.98 in 10.0 mi West 10.4 mph 20.7 mph N/A   Overcast
6:56 PM 68.4 °F 52.5 °F 57% 29.98 in 10.0 mi West 10.4 mph 20.7 mph N/A   Overcast
7:18 PM 67.1 °F 49.1 °F 52% 29.99 in 10.0 mi West 18.4 mph 27.6 mph N/A   Overcast
7:37 PM 66.2 °F 49.8 °F 55% 30.00 in 10.0 mi West 13.8 mph 25.3 mph N/A   Overcast
7:55 PM 65.3 °F 47.3 °F 52% 30.01 in 10.0 mi West 12.7 mph 18.4 mph N/A   Overcast
8:15 PM 64.9 °F 48.0 °F 54% 30.01 in 10.0 mi WSW 9.2 mph - N/A   Overcast
8:58 PM 64.6 °F 48.6 °F 56% 30.02 in 10.0 mi West 10.4 mph - N/A   Overcast
9:16 PM 64.4 °F 48.9 °F 57% 30.03 in 10.0 mi West 9.2 mph - N/A   Overcast
9:35 PM 63.7 °F 47.5 °F 56% 30.04 in 10.0 mi West 10.4 mph 18.4 mph N/A   Mostly Cloudy
9:36 PM 63.5 °F 47.5 °F 56% 30.04 in 10.0 mi West 11.5 mph 16.1 mph N/A   Mostly Cloudy
9:55 PM 63.3 °F 46.4 °F 54% 30.05 in 10.0 mi West 8.1 mph - N/A   Mostly Cloudy
9:56 PM 63.1 °F 46.4 °F 54% 30.05 in 10.0 mi West 9.2 mph - N/A   Mostly Cloudy
10:19 PM 62.1 °F 46.2 °F 56% 30.05 in 10.0 mi West 6.9 mph - N/A   Scattered Clouds
10:37 PM 62.6 °F 45.7 °F 54% 30.05 in 10.0 mi West 6.9 mph - N/A   Mostly Cloudy
10:55 PM 62.6 °F 46.0 °F 55% 30.06 in 10.0 mi West 8.1 mph - N/A   Overcast
11:15 PM 62.6 °F 45.9 °F 54% 30.06 in 10.0 mi West 10.4 mph - N/A   Overcast
11:35 PM 62.6 °F 46.2 °F 55% 30.06 in 10.0 mi West 6.9 mph - N/A   Overcast
11:40 PM 62.6 °F 46.4 °F 55% 30.06 in 10.0 mi West 9.2 mph - N/A   Overcast
11:58 PM 62.6 °F 46.6 °F 56% 30.06 in 10.0 mi West 5.8 mph - N/A   Overcast